Waarnemingen

Advertentie
Mijn weer
Schaffen, België (6465): temperatuur & dauwpunt: 12.08.2019 03:00:00 - 18.08.2019 03:00:00 (CEST)Schaffen, België (6465): windsnelheid & windstoten: 12.08.2019 03:00:00 - 18.08.2019 03:00:00 (CEST)Schaffen, België (6465): windrichting: 12.08.2019 03:00:00 - 18.08.2019 03:00:00 (CEST)Schaffen, België (6465): luchtdruk: 12.08.2019 03:00:00 - 18.08.2019 03:00:00 (CEST)Schaffen, België (6465): zicht: 12.08.2019 03:00:00 - 18.08.2019 03:00:00 (CEST)
Datum & Tijd tt [°C] td [°C] ff [km/u] ff [kn] fx [km/u] fx [kn] dd ppp [hPa] vv [km]
18.08.2019 03:00:00 16,0 15,0 8 4 - - ZW - 8
18.08.2019 02:00:00 15,8 15,2 5 3 - - Z 1008,1 8
18.08.2019 01:00:00 16,2 15,5 4 2 11 6 N 1008,3 10
18.08.2019 00:00:00 16,6 15,7 7 4 11 6 Z 1007,8 19
17.08.2019 23:00:00 16,7 15,3 7 4 - - ZZW 1008,1 20
17.08.2019 22:00:00 17,7 17,1 11 6 18 10 WZW 1008,2 1,6
17.08.2019 21:00:00 18,6 17,8 13 7 29 16 ZW 1007,8 3,0
17.08.2019 20:00:00 19,6 17,1 14 8 - - ZZW 1007,8 20
17.08.2019 19:00:00 19,5 17,3 18 10 29 16 Z 1008,1 20
17.08.2019 18:00:00 19,0 17,3 14 8 29 16 ZZW 1008,2 15
17.08.2019 17:00:00 19,1 17,1 14 8 - - ZZW 1008,2 12
17.08.2019 16:00:00 18,8 17,0 18 10 32 18 ZZW 1008,2 18
17.08.2019 15:00:00 19,4 16,5 18 10 36 19 ZZW 1008,2 20
17.08.2019 14:00:00 19,1 16,3 14 8 - - ZZW 1008,5 20
17.08.2019 13:00:00 18,3 16,7 14 8 32 18 ZZW 1008,8 20
17.08.2019 12:00:00 17,6 16,6 13 7 32 18 ZZW 1008,8 4,5
17.08.2019 11:00:00 17,3 15,8 14 8 - - ZZW 1008,7 20
17.08.2019 10:00:00 - - - - - - - - -
17.08.2019 09:00:00 16,6 15,2 14 8 29 16 ZZW 1008,6 7
17.08.2019 08:00:00 16,3 15,0 14 8 - - ZZW 1008,3 10
17.08.2019 07:00:00 18,5 12,8 11 6 25 14 ZW 1008,1 18
17.08.2019 06:00:00 18,6 12,5 11 6 22 12 ZZW 1008,1 20
17.08.2019 05:00:00 18,2 12,9 11 6 - - Z 1008,1 20
17.08.2019 04:00:00 18,2 12,8 11 6 18 10 Z 1008,5 20
17.08.2019 03:00:00 17,8 13,1 11 6 18 10 Z 1008,8 20
17.08.2019 02:00:00 17,1 13,8 7 4 - - ZZW 1010,0 20
17.08.2019 01:00:00 16,7 14,2 7 4 14 8 ZZO 1010,2 20
17.08.2019 00:00:00 17,5 13,6 7 4 18 10 Z 1011,2 20
16.08.2019 23:00:00 18,6 12,9 11 6 - - ZZO 1011,6 20
16.08.2019 22:00:00 19,0 12,6 11 6 14 8 Z 1012,2 20
16.08.2019 21:00:00 19,9 12,1 4 2 18 10 N 1012,3 20
16.08.2019 20:00:00 21,2 11,4 11 6 - - Z 1012,5 20
16.08.2019 19:00:00 21,9 10,2 14 8 25 14 Z 1013,2 20
16.08.2019 18:00:00 22,3 10,5 14 8 25 14 Z 1013,3 20
16.08.2019 17:00:00 22,1 10,7 14 8 - - ZW 1014,1 20
16.08.2019 16:00:00 22,7 12,4 11 6 32 18 ZW 1015,0 20
16.08.2019 15:00:00 21,6 11,8 11 6 29 16 ZW 1015,8 20
16.08.2019 14:00:00 20,7 11,5 14 8 - - ZZW 1016,3 20
16.08.2019 13:00:00 20,7 12,9 11 6 25 14 ZZW 1016,7 20
16.08.2019 12:00:00 18,4 12,6 11 6 25 14 ZW 1017,3 20
16.08.2019 11:00:00 17,3 12,6 18 10 - - ZZW 1017,7 18
16.08.2019 10:00:00 15,7 12,9 14 8 22 12 ZZW 1018,0 10
16.08.2019 09:00:00 15,0 13,5 11 6 25 14 Z 1018,0 5
16.08.2019 08:00:00 14,0 13,4 7 4 - - ZZW 1017,8 4,0
16.08.2019 07:00:00 13,1 12,5 7 4 14 8 ZZW 1017,8 5
16.08.2019 06:00:00 12,5 11,8 7 4 11 6 ZZW 1017,7 10
16.08.2019 05:00:00 13,1 12,2 7 4 - - ZZW 1017,7 16
16.08.2019 04:00:00 13,5 12,1 7 4 18 10 ZW 1017,7 19
16.08.2019 03:00:00 14,1 12,1 11 6 14 8 ZW 1017,5 20
16.08.2019 02:00:00 14,6 12,3 7 4 - - ZW 1017,6 20
16.08.2019 01:00:00 15,6 12,5 4 2 18 10 N 1017,3 20
16.08.2019 00:00:00 16,9 12,6 7 4 18 10 WZW 1017,1 20
15.08.2019 23:00:00 16,5 12,0 7 4 - - ZW 1016,7 20
15.08.2019 22:00:00 17,2 11,4 7 4 18 10 N 1016,3 20
15.08.2019 21:00:00 18,6 11,6 7 4 22 12 W 1015,3 20
15.08.2019 20:00:00 19,1 11,2 14 8 - - WNW 1014,7 20
15.08.2019 19:00:00 20,6 12,1 14 8 32 18 WNW 1013,7 20
15.08.2019 18:00:00 20,4 11,9 22 12 32 18 WNW 1013,2 20
15.08.2019 17:00:00 20,6 13,5 18 10 - - W 1012,7 20
15.08.2019 16:00:00 19,5 13,5 14 8 32 18 WZW 1012,2 20
15.08.2019 15:00:00 21,5 12,4 14 8 40 21 W 1011,3 20
15.08.2019 14:00:00 21,0 12,5 18 10 - - W 1011,1 20
15.08.2019 13:00:00 20,4 14,1 22 12 36 19 W 1010,7 20
15.08.2019 12:00:00 19,1 14,3 22 12 36 19 WZW 1010,5 20
15.08.2019 11:00:00 18,0 15,5 18 10 - - WZW 1010,1 20
15.08.2019 10:00:00 18,0 14,9 14 8 29 16 ZW 1010,0 20
15.08.2019 09:00:00 17,5 15,0 11 6 22 12 ZW 1009,7 20
15.08.2019 08:00:00 16,7 14,8 11 6 - - ZZW 1009,7 20
15.08.2019 07:00:00 16,3 14,8 11 6 25 14 ZZW 1009,6 10
15.08.2019 06:00:00 16,0 14,9 14 8 29 16 ZZW 1009,3 20
15.08.2019 05:00:00 16,1 14,7 18 10 - - ZZW 1009,7 18
15.08.2019 04:00:00 15,8 14,6 14 8 29 16 ZZW 1010,2 20
15.08.2019 03:00:00 15,8 14,7 14 8 29 16 ZZW 1010,8 20
15.08.2019 02:00:00 16,0 14,6 7 4 - - ZZW 1011,6 10
15.08.2019 01:00:00 16,2 14,6 7 4 18 10 ZZW 1012,1 20
15.08.2019 00:00:00 15,8 14,6 7 4 18 10 Z 1012,2 20
14.08.2019 23:00:00 16,0 14,6 5 3 - - Z 1013,0 7
14.08.2019 22:00:00 16,5 14,4 4 2 7 4 N 1013,5 15
14.08.2019 21:00:00 17,6 13,5 7 4 7 4 N 1013,2 20
14.08.2019 20:00:00 18,4 13,1 4 2 - - N 1013,8 20
14.08.2019 19:00:00 19,2 12,0 4 2 18 10 N 1014,7 20
14.08.2019 18:00:00 19,7 12,8 7 4 18 10 WZW 1015,3 20
14.08.2019 17:00:00 20,8 10,0 7 4 - - ZW 1015,8 20
14.08.2019 16:00:00 20,8 9,1 14 8 29 16 ZZW 1016,5 20
14.08.2019 15:00:00 20,8 10,8 14 8 29 16 ZZW 1017,1 20
14.08.2019 14:00:00 20,5 11,2 14 8 - - Z 1017,7 20
14.08.2019 13:00:00 18,2 10,6 14 8 25 14 ZZW 1018,0 20
14.08.2019 12:00:00 17,4 10,1 11 6 25 14 ZZW 1018,5 20
14.08.2019 11:00:00 17,6 12,3 11 6 - - Z 1019,0 20
14.08.2019 10:00:00 15,5 12,7 11 6 18 10 Z 1019,2 20
14.08.2019 09:00:00 - - - - - - - - -
14.08.2019 08:00:00 11,5 10,5 7 4 - - Z 1019,2 12
14.08.2019 07:00:00 9,3 8,6 8 4 11 6 Z 1019,2 7
14.08.2019 06:00:00 9,0 8,4 7 4 7 4 Z 1019,0 1,9
14.08.2019 05:00:00 9,8 9,1 4 2 - - N 1019,1 5
14.08.2019 04:00:00 11,0 9,8 4 2 14 8 N 1019,2 12
14.08.2019 03:00:00 11,6 10,5 7 4 14 8 ZW 1019,2 19
14.08.2019 02:00:00 11,9 10,6 7 4 - - ZW 1019,1 20
14.08.2019 01:00:00 10,8 10,1 7 4 7 4 ZZW 1019,2 7
14.08.2019 00:00:00 11,6 10,7 4 2 11 6 N 1019,2 16
13.08.2019 23:00:00 11,8 10,9 7 4 - - ZZW 1019,3 17
13.08.2019 22:00:00 11,9 10,6 4 2 7 4 N 1019,2 20
13.08.2019 21:00:00 12,5 11,0 4 2 36 19 N 1018,8 20
13.08.2019 20:00:00 14,1 8,8 14 8 - - WNW 1018,7 20
13.08.2019 19:00:00 17,0 11,2 7 4 18 10 ZW 1018,2 20
13.08.2019 18:00:00 16,0 11,8 11 6 22 12 WZW 1018,6 20
13.08.2019 17:00:00 15,8 11,4 11 6 - - WZW 1018,6 20
13.08.2019 16:00:00 15,5 9,4 14 8 36 19 WZW 1018,8 20
13.08.2019 15:00:00 15,4 10,3 18 10 40 21 ZW 1018,7 20
13.08.2019 14:00:00 18,5 6,9 14 8 - - ZW 1018,2 20
13.08.2019 13:00:00 19,4 8,7 14 8 32 18 ZW 1018,6 20
13.08.2019 12:00:00 - - - - - - - - -
13.08.2019 11:00:00 17,1 10,8 14 8 - - WZW 1018,8 20
13.08.2019 10:00:00 15,2 11,6 11 6 22 12 ZW 1018,8 20
13.08.2019 09:00:00 13,8 11,4 11 6 18 10 ZZW 1018,6 20
13.08.2019 08:00:00 12,1 10,8 7 4 - - ZZW 1018,1 10
13.08.2019 07:00:00 11,5 10,6 7 4 11 6 ZW 1017,8 7
13.08.2019 06:00:00 11,8 10,8 9 5 14 8 ZW 1017,7 7
13.08.2019 05:00:00 12,2 11,1 7 4 - - WZW 1017,1 10
13.08.2019 04:00:00 12,7 11,3 11 6 22 12 WZW 1016,8 15
13.08.2019 03:00:00 12,8 11,5 11 6 14 8 WZW 1016,7 17
13.08.2019 02:00:00 13,1 11,9 7 4 - - ZW 1016,6 20
13.08.2019 01:00:00 12,6 11,3 7 4 14 8 WZW 1016,6 20
13.08.2019 00:00:00 12,8 11,6 7 4 11 6 ZZW 1016,2 20
12.08.2019 23:00:00 13,2 11,6 7 4 - - W 1016,7 12
12.08.2019 22:00:00 14,6 13,1 4 2 7 4 - 1015,7 10
12.08.2019 21:00:00 15,0 13,2 4 2 7 4 N 1015,2 20
12.08.2019 20:00:00 15,6 12,7 4 2 - - N 1014,8 20
12.08.2019 19:00:00 16,7 12,6 4 2 14 8 N 1014,7 20
12.08.2019 18:00:00 14,8 12,8 4 2 11 6 N 1014,7 20
12.08.2019 17:00:00 15,0 12,3 7 4 - - WNW 1015,1 20
12.08.2019 16:00:00 15,8 11,8 31 17 50 27 WZW 1014,7 3,8
12.08.2019 15:00:00 23,5 9,7 11 6 25 14 WZW 1013,7 20
12.08.2019 14:00:00 21,7 10,0 11 6 - - WZW 1014,2 20
12.08.2019 13:00:00 22,4 10,8 11 6 25 14 ZZW 1015,0 20
12.08.2019 12:00:00 21,0 11,3 14 8 25 14 ZW 1015,6 20
12.08.2019 11:00:00 19,0 11,9 11 6 - - ZW 1015,8 20
12.08.2019 10:00:00 17,5 12,1 7 4 18 10 ZW 1016,0 20
12.08.2019 09:00:00 15,8 12,0 11 6 18 10 Z 1016,1 20
12.08.2019 08:00:00 14,2 11,9 7 4 - - Z 1015,8 18
12.08.2019 07:00:00 12,2 10,8 7 4 11 6 Z 1015,8 19
12.08.2019 06:00:00 12,0 10,5 7 4 11 6 Z 1015,7 20
12.08.2019 05:00:00 12,6 10,5 4 2 - - N 1015,3 20
12.08.2019 04:00:00 13,7 10,9 4 2 18 10 N 1015,2 20
12.08.2019 03:00:00 14,5 10,9 7 4 22 12 ZZW 1015,3 20

tt = temperatuur
td = dauwpunt
ff = windsnelheid
fx = windstoten
dd = windrichting
ppp = luchtdruk
vv = zicht

Weerstations in de omgeving